Wind_Speed
11 9 8 8 7 6 5 4 3 2 3 4 4 6 6 6 7 8 8 9 9 10 10 11 11 11 11 11 10 9 7 7 6 5 4 3 2 2 2 2 2 3 2 1
12 11 10 10 9 8 7 7 6 5 6 6 5 6 6 6 7 7 7 8 8 9 9 10 10 10 11 11 11 10 8 7 5 5 4 3 2 2 1 1 2 2 2 2
13 12 11 11 10 9 9 8 7 7 7 7 7 6 6 7 7 7 7 7 7 7 8 8 9 10 11 11 11 9 8 7 6 5 3 3 3 3 2 2 2 3 3 2
13 12 12 11 10 9 9 9 9 9 9 9 9 9 8 8 7 8 8 7 7 7 7 8 8 9 10 10 10 10 8 7 6 4 4 4 3 3 3 3 3 4 4 3
13 13 13 12 10 10 10 9 10 10 10 10 9 10 8 8 8 8 8 7 6 6 6 7 8 9 10 10 10 10 9 7 6 4 4 4 4 4 4 4 4 4 4 4
14 14 14 12 12 11 10 9 10 10 10 10 10 10 9 9 8 8 7 7 7 7 7 8 8 10 10 10 9 10 9 8 6 6 5 5 5 5 5 5 5 5 5 6
15 14 14 13 13 13 12 11 11 11 11 11 11 11 10 10 9 8 8 8 8 8 9 9 9 10 9 9 9 9 9 8 7 7 6 6 6 6 6 6 6 7 7 7
15 14 13 13 12 12 12 12 11 11 11 12 12 13 13 12 11 11 10 10 9 9 10 10 10 9 9 9 9 9 9 9 8 8 8 8 8 7 7 8 8 8 8 8
16 15 15 15 14 14 13 13 12 12 13 14 14 13 12 12 11 11 11 11 10 11 11 11 11 9 10 9 10 10 10 10 10 9 9 10 10 9 9 9 9 10 10 10
18 18 17 17 16 16 15 14 13 14 15 15 15 13 13 12 12 12 12 12 12 12 12 12 12 11 11 10 11 10 11 11 11 11 11 12 12 11 11 11 12 12 12 13
19 19 19 18 18 17 17 17 16 16 17 17 16 15 14 14 14 14 14 14 14 14 14 14 13 12 12 12 12 12 11 12 12 13 13 14 14 13 12 12 13 13 14 14
19 19 19 19 19 19 19 18 18 18 18 18 18 17 15 15 15 15 15 15 15 15 15 15 14 14 14 14 14 14 13 14 15 15 15 15 15 14 13 13 14 14 14 15
20 21 20 20 20 20 20 19 19 19 19 19 19 18 16 16 16 16 16 16 17 16 16 15 15 16 16 16 16 16 16 16 17 16 16 17 17 17 16 15 15 16 16 16
21 20 21 20 20 20 21 21 20 21 21 20 20 19 17 17 17 17 17 17 17 17 17 17 17 17 18 17 17 18 18 18 18 18 18 18 18 18 18 17 17 17 17 17
21 21 21 21 21 22 22 22 22 22 22 22 21 20 19 19 18 18 18 18 18 18 17 18 18 19 19 19 19 19 19 19 19 19 20 20 19 19 18 18 18 18 18 18
22 22 22 22 22 23 23 22 23 23 23 23 22 22 21 20 20 19 19 19 19 19 18 19 19 20 20 20 20 20 20 20 20 20 20 20 20 20 19 19 19 19 20 20
23 23 23 24 24 23 24 23 23 23 23 24 23 23 22 21 21 20 21 22 21 21 20 21 21 21 22 22 21 21 21 21 21 21 21 21 21 21 21 21 21 22 22 22
25 25 25 24 25 25 24 23 23 23 23 23 23 22 22 22 22 22 22 23 23 22 23 23 23 24 24 23 23 22 21 21 21 21 22 23 23 23 23 23 24 23 23 24
25 25 25 25 26 25 24 24 23 24 23 23 23 23 23 23 24 23 24 24 24 23 24 24 25 24 24 24 24 24 23 23 23 23 23 24 24 25 24 25 25 25 25 26
25 26 26 26 26 25 23 23 23 23 22 22 22 23 24 24 24 24 25 25 25 24 24 25 26 26 26 27 27 27 26 25 25 25 26 26 25 25 26 26 26 26 26 26
25 26 26 26 26 25 24 23 23 24 23 23 23 23 23 24 25 24 24 25 25 25 25 25 26 27 27 28 28 27 27 27 27 27 27 27 27 27 27 27 26 27 27 27
25 25 26 26 26 26 25 25 25 25 25 25 25 26 25 25 25 26 26 26 25 26 26 26 27 28 28 28 28 28 28 28 28 28 28 28 28 28 28 27 27 27 27 27
25 25 25 25 25 25 25 26 25 25 25 25 26 25 24 24 25 25 25 25 26 26 27 27 28 28 28 29 30 29 28 28 29 29 29 28 28 28 27 27 27 27 27 27
25 25 25 26 25 25 25 25 25 26 26 26 26 25 24 25 25 25 25 25 26 26 27 28 28 28 29 29 30 30 30 29 29 29 28 28 28 27 27 27 27 27 27 27
25 26 25 25 24 24 24 25 25 25 25 25 24 24 24 25 25 25 25 25 25 26 26 27 28 28 28 29 30 29 29 29 29 29 28 28 28 28 28 27 27 27 26 26
26 26 25 24 24 24 24 24 24 24 24 24 24 24 24 24 24 24 25 25 26 26 27 27 27 28 28 28 28 29 29 29 28 28 29 29 28 28 28 28 27 27 26 26
Wind_Direction
221 220 219 223 225 233 248 255 271 293 295 310 325 331 338 351 357 359 1 6 10 12 13 14 14 13 14 14 13 10 11 11 12 19 25 42 56 53 61 66 51 34 26 331
225 226 231 233 232 243 255 263 269 278 289 304 306 309 317 330 343 346 349 354 357 0 8 11 10 9 8 9 11 12 11 12 10 16 25 29 42 30 23 40 32 6 357 344
229 230 230 233 242 249 255 263 267 270 277 293 292 291 304 313 327 333 338 343 344 349 358 6 6 4 3 1 2 6 6 7 3 360 8 17 9 5 0 348 352 339 335 313
227 228 230 234 240 248 258 262 264 267 272 285 292 298 304 309 313 322 327 332 334 340 350 358 358 356 352 350 352 356 357 353 355 358 354 344 345 343 337 321 325 325 322 322
223 227 230 233 243 252 261 265 266 271 276 282 290 300 304 304 311 318 330 331 327 331 339 346 344 343 344 345 346 350 351 347 348 350 348 343 333 323 319 314 312 315 305 309
224 226 229 236 244 251 257 265 270 272 277 278 288 294 299 300 308 315 320 326 324 323 326 329 333 337 340 344 345 345 348 346 338 335 333 337 335 326 318 310 302 300 303 307
225 226 229 236 244 249 257 267 271 273 278 281 285 287 294 301 301 307 303 306 312 315 318 320 325 333 339 341 341 339 340 339 333 325 326 325 321 315 309 307 305 300 303 306
229 229 232 237 243 252 262 267 271 278 280 283 283 286 292 297 296 297 298 301 305 305 310 314 318 322 329 334 335 335 334 333 328 320 317 317 315 310 306 301 301 301 302 304
230 231 234 239 245 252 256 262 267 274 279 284 285 288 291 294 294 293 293 296 297 299 301 305 306 307 316 322 323 322 323 323 321 316 307 307 313 308 302 295 295 296 297 298
232 234 237 241 246 251 256 260 266 272 282 287 288 289 294 291 295 293 293 294 293 295 295 295 297 299 307 311 314 315 314 313 311 309 306 304 303 304 295 290 292 294 293 295
234 235 237 241 247 253 258 260 265 272 280 286 290 291 293 290 289 291 291 290 291 293 293 290 292 297 301 303 307 309 310 309 308 306 305 305 305 302 292 288 290 291 293 295
234 235 236 240 247 253 258 262 266 272 279 283 287 290 290 291 288 289 288 287 287 290 292 289 289 292 296 298 300 301 301 303 303 302 304 304 306 302 295 289 289 290 291 292
234 237 239 243 248 253 256 261 265 270 276 281 284 287 286 288 288 288 288 287 284 286 287 285 284 286 289 292 294 296 297 298 298 299 302 303 303 301 294 290 290 290 289 290
237 241 244 248 252 255 258 262 264 267 273 277 280 284 285 284 285 286 286 285 283 284 284 283 284 284 286 287 292 294 295 295 297 298 301 302 302 300 295 289 288 287 287 288
239 243 246 248 250 253 257 260 262 265 271 275 278 282 283 283 284 284 283 283 283 284 284 284 284 284 286 288 292 293 293 293 294 296 297 298 300 299 295 290 287 286 286 287
240 243 246 249 252 255 257 259 263 265 268 272 274 277 281 281 283 284 282 282 285 285 284 284 285 286 287 287 290 292 292 293 293 294 294 294 294 296 295 291 289 287 285 286
243 246 249 251 254 256 255 260 264 267 268 270 273 275 275 277 279 280 281 281 283 285 288 286 287 288 289 290 289 291 291 289 291 292 292 291 291 291 293 291 289 286 284 282
248 251 252 253 254 255 258 261 263 266 269 271 272 274 274 276 278 278 280 281 281 283 285 285 286 289 289 288 287 289 288 287 288 290 289 289 291 290 290 290 289 287 284 282
248 252 254 256 258 260 262 262 263 266 269 272 274 274 273 274 275 277 279 282 282 282 284 285 285 286 287 287 289 291 290 287 286 289 290 291 291 291 290 290 288 287 286 284
250 251 254 257 260 262 264 264 266 269 272 273 274 274 274 273 274 277 280 279 280 282 284 286 285 284 284 287 289 290 289 289 290 291 292 293 293 292 293 293 292 291 288 287
249 251 253 256 259 261 263 265 267 270 272 273 274 275 275 273 274 278 279 281 283 286 287 285 284 285 285 287 289 290 289 289 290 291 293 294 294 294 294 292 291 291 289 289
250 252 254 256 257 259 262 265 268 270 271 273 274 275 275 274 276 279 281 281 283 286 285 284 285 285 285 287 288 290 288 288 288 289 290 292 292 294 293 291 290 291 291 290
249 251 253 255 259 262 263 265 268 271 273 275 278 277 275 276 278 280 282 282 283 284 285 285 285 285 284 286 287 288 288 288 289 290 290 291 292 293 292 290 290 290 291 291
249 252 254 257 260 263 266 268 271 272 274 277 278 277 276 277 277 279 282 283 285 287 287 286 285 285 285 286 287 287 288 288 289 289 288 289 290 291 292 290 289 289 289 290
252 253 256 259 262 264 266 269 271 272 274 277 277 276 277 276 276 278 282 284 287 289 289 288 287 286 285 285 286 286 286 287 288 288 289 290 291 291 291 292 290 288 287 287
255 257 259 260 260 264 266 268 272 274 276 277 276 276 278 278 278 281 284 286 289 289 289 288 287 288 290 287 286 286 285 285 286 288 290 290 290 290 290 290 289 288 289 289
Height
5907 5909 5909 5910 5910 5911 5911 5912 5912 5912 5912 5911 5911 5910 5909 5908 5907 5906 5904 5903 5901 5900 5898 5896 5893 5891 5889 5887 5885 5883 5881 5880 5879 5878 5877 5876 5876 5876 5877 5876 5876 5876 5876 5876
5906 5907 5909 5909 5910 5910 5910 5911 5911 5911 5911 5911 5910 5910 5910 5908 5907 5906 5904 5903 5901 5899 5898 5896 5894 5892 5890 5888 5885 5883 5882 5880 5879 5878 5878 5877 5877 5877 5877 5877 5877 5876 5876 5876
5904 5906 5907 5908 5909 5909 5910 5910 5910 5910 5910 5909 5909 5910 5909 5908 5907 5905 5904 5903 5901 5899 5898 5896 5894 5892 5890 5888 5885 5883 5882 5880 5879 5879 5878 5878 5877 5877 5877 5877 5877 5877 5876 5876
5902 5903 5905 5906 5907 5908 5909 5909 5909 5908 5908 5908 5909 5908 5908 5907 5906 5905 5904 5902 5901 5899 5897 5896 5894 5892 5890 5887 5885 5883 5881 5880 5879 5879 5878 5878 5878 5877 5877 5877 5876 5876 5876 5875
5900 5901 5903 5905 5906 5906 5907 5907 5907 5907 5906 5906 5906 5906 5907 5906 5905 5904 5903 5901 5900 5899 5897 5895 5894 5892 5889 5887 5884 5882 5881 5880 5879 5879 5878 5878 5877 5877 5877 5876 5876 5875 5875 5874
5898 5899 5901 5903 5904 5904 5904 5905 5905 5905 5905 5905 5905 5905 5905 5905 5904 5903 5902 5901 5899 5898 5896 5895 5893 5891 5889 5886 5884 5882 5881 5880 5879 5878 5878 5877 5877 5877 5876 5876 5875 5874 5874 5873
5896 5898 5899 5901 5902 5902 5903 5904 5904 5903 5903 5903 5903 5903 5904 5903 5902 5901 5900 5899 5898 5896 5895 5893 5892 5890 5888 5886 5884 5882 5881 5880 5879 5878 5877 5877 5876 5876 5875 5875 5874 5873 5873 5872
5894 5896 5897 5898 5899 5900 5900 5902 5902 5902 5901 5901 5901 5901 5902 5901 5900 5899 5898 5897 5896 5894 5893 5891 5890 5889 5887 5885 5884 5882 5881 5879 5878 5877 5877 5875 5875 5874 5874 5873 5873 5872 5871 5870
5891 5894 5895 5896 5897 5898 5898 5898 5899 5899 5899 5898 5898 5899 5899 5898 5897 5896 5895 5894 5893 5892 5891 5889 5888 5887 5886 5884 5883 5881 5880 5878 5877 5876 5875 5874 5873 5872 5872 5871 5870 5870 5869 5868
5888 5890 5892 5893 5894 5895 5896 5896 5897 5896 5896 5895 5896 5896 5896 5895 5894 5894 5893 5892 5891 5890 5888 5887 5885 5885 5884 5882 5881 5879 5878 5877 5876 5875 5874 5872 5871 5870 5869 5868 5868 5867 5866 5865
5885 5887 5888 5889 5890 5891 5893 5893 5893 5893 5893 5893 5892 5895 5893 5892 5891 5890 5889 5888 5887 5886 5885 5884 5883 5882 5881 5880 5879 5877 5876 5875 5873 5872 5871 5870 5868 5867 5865 5864 5864 5864 5863 5862
5880 5882 5884 5886 5887 5887 5888 5889 5890 5890 5890 5889 5889 5892 5889 5889 5887 5887 5886 5885 5884 5883 5882 5881 5880 5879 5878 5877 5876 5874 5873 5872 5871 5869 5868 5867 5865 5864 5862 5861 5861 5860 5859 5858
5876 5878 5880 5881 5884 5884 5884 5885 5885 5886 5886 5885 5885 5888 5886 5885 5883 5883 5882 5881 5880 5879 5878 5877 5876 5875 5874 5873 5872 5871 5870 5868 5867 5866 5864 5863 5862 5860 5859 5858 5857 5856 5855 5854
5872 5873 5876 5878 5879 5879 5880 5880 5881 5881 5881 5881 5881 5881 5881 5880 5879 5879 5878 5877 5876 5875 5874 5872 5872 5871 5870 5869 5868 5866 5865 5864 5863 5861 5860 5859 5857 5856 5855 5853 5852 5851 5850 5849
5867 5868 5870 5872 5873 5874 5875 5876 5876 5877 5877 5877 5877 5876 5876 5876 5875 5874 5873 5872 5871 5870 5869 5868 5867 5866 5865 5864 5863 5862 5860 5859 5858 5857 5855 5854 5853 5851 5850 5848 5847 5846 5845 5844
5862 5864 5865 5867 5868 5869 5870 5871 5871 5872 5872 5872 5872 5872 5871 5870 5870 5869 5868 5867 5866 5865 5864 5863 5862 5861 5860 5859 5858 5857 5855 5854 5853 5852 5850 5849 5847 5846 5844 5843 5842 5841 5839 5838
5857 5859 5860 5861 5863 5863 5864 5866 5866 5866 5866 5867 5866 5867 5866 5865 5865 5864 5863 5862 5861 5860 5859 5858 5857 5856 5855 5854 5853 5851 5850 5848 5847 5846 5844 5843 5841 5840 5839 5837 5836 5834 5833 5832
5852 5853 5854 5856 5858 5857 5861 5860 5860 5861 5861 5861 5861 5860 5860 5859 5859 5858 5857 5856 5855 5854 5853 5853 5852 5851 5850 5849 5847 5846 5844 5842 5842 5840 5838 5837 5835 5834 5832 5830 5829 5827 5825 5824
5846 5847 5848 5850 5850 5851 5854 5854 5854 5855 5855 5855 5854 5854 5854 5853 5853 5852 5851 5851 5850 5849 5848 5847 5846 5845 5844 5843 5841 5840 5838 5837 5835 5834 5832 5830 5828 5826 5824 5823 5821 5819 5817 5816
5840 5841 5843 5843 5844 5845 5848 5848 5847 5849 5849 5849 5848 5848 5848 5847 5847 5847 5845 5844 5843 5842 5842 5840 5839 5838 5837 5836 5834 5833 5832 5830 5829 5827 5825 5823 5821 5819 5817 5815 5813 5811 5810 5808
5834 5835 5837 5838 5838 5839 5841 5841 5842 5843 5844 5843 5842 5842 5841 5841 5841 5840 5838 5838 5837 5836 5835 5834 5833 5831 5830 5829 5827 5826 5824 5823 5822 5819 5818 5816 5813 5811 5809 5807 5805 5803 5802 5800
5828 5829 5831 5832 5833 5836 5835 5835 5836 5836 5836 5836 5835 5835 5835 5834 5834 5833 5832 5831 5830 5829 5828 5827 5825 5824 5823 5821 5820 5818 5817 5815 5813 5811 5810 5808 5806 5803 5801 5799 5797 5795 5794 5792
5822 5824 5824 5826 5828 5828 5828 5829 5829 5829 5829 5829 5829 5828 5828 5828 5827 5827 5826 5825 5823 5822 5821 5820 5818 5817 5815 5814 5812 5810 5808 5806 5805 5803 5802 5800 5798 5795 5793 5791 5789 5788 5786 5784
5816 5817 5818 5819 5820 5821 5822 5822 5823 5823 5822 5822 5822 5821 5821 5821 5821 5820 5819 5818 5817 5815 5814 5812 5811 5809 5808 5806 5804 5802 5800 5798 5796 5795 5794 5792 5790 5788 5786 5783 5781 5780 5778 5776
5810 5811 5812 5813 5814 5815 5816 5816 5816 5816 5815 5815 5815 5815 5814 5814 5814 5813 5812 5811 5810 5808 5806 5805 5803 5801 5800 5798 5796 5794 5791 5789 5788 5786 5785 5783 5781 5780 5778 5776 5774 5772 5770 5768
5803 5804 5805 5807 5808 5809 5809 5810 5810 5809 5809 5809 5808 5808 5808 5807 5807 5806 5805 5804 5802 5801 5799 5797 5795 5794 5792 5789 5787 5785 5783 5781 5779 5778 5777 5775 5773 5771 5769 5767 5765 5763 5762 5761